date,time,DOY,Ta_1_1_1,RH_1_1_1,LWin_1_1_1,LWout_1_1_1,SWin_1_1_1,SWout_1_1_1,PPFD_1_1_1,SWC_1_1_1,Ts_1_1_1
[yyyy-mm-dd],[HH:MM],[ddd.ddd],[K],[%],[W+1m-2],[W+1m-2],[W+1m-2],[W+1m-2],[µmol+1m-2s-1],[m+3m-3],[K]
2013-02-04,00:30,35.020,254.84000000000003,72.398666666666671,-9.2163636363636368,-9999.0,0.20799999999999993,-2.9520000000000000,1.00000000000000019E-002,-9999.0,279.90999999999991
2013-02-04,01:00,35.041,254.89033333333336,73.302333333333323,-9999.0,-9999.0,0.47466666666666668,-2.9896666666666665,3.99999999999999922E-003,-9999.0,279.90999999999991
2013-02-04,01:30,35.062,254.59366666666671,74.729666666666674,-9999.0,-9999.0,0.28066666666666662,-3.5090000000000003,6.33333333333333404E-003,-9999.0,279.90999999999991
2013-02-04,02:00,35.083,254.45866666666669,76.019000000000005,-9999.0,-9999.0,0.54133333333333344,-3.0429999999999997,3.66666666666666703E-003,-9999.0,279.90999999999991
2013-02-04,02:30,35.104,254.62566666666672,77.180333333333337,-9999.0,-9999.0,0.40766666666666673,-3.0953333333333335,6.66666666666666536E-004,-9999.0,279.90999999999991
2013-02-04,03:00,35.124,254.67099999999996,79.126999999999967,-9.4012500000000010,-9999.0,0.28833333333333344,-2.4469999999999996,6.00000000000000099E-003,-9999.0,279.90999999999991
2013-02-04,03:30,35.145,254.84100000000004,79.617333333333320,-8.6383333333333319,-9999.0,-0.15633333333333332,-1.3200000000000001,4.99999999999999924E-003,-9999.0,279.90999999999991
2013-02-04,04:00,35.166,254.74400000000000,79.542333333333332,-9.0279310344827604,-9999.0,-0.10466666666666667,-2.4030000000000005,6.33333333333333318E-003,-9999.0,279.90999999999991
2013-02-04,04:30,35.187,254.51466666666661,79.457333333333324,-9.9400000000000013,-9999.0,0.33633333333333332,-3.5306666666666664,-2.66666666666666701E-003,-9999.0,279.90999999999991
2013-02-04,05:00,35.208,254.26233333333337,79.137333333333331,-9999.0,-9999.0,0.36233333333333334,-3.4356666666666666,9.66666666666666716E-003,-9999.0,279.90999999999991
2013-02-04,05:30,35.229,254.35066666666665,78.891333333333336,-9999.0,-9999.0,0.46966666666666673,-3.2813333333333334,5.33333333333333316E-003,-9999.0,279.90999999999991
2013-02-04,06:00,35.249,254.35466666666673,78.692999999999984,-9999.0,-9999.0,0.39166666666666672,-3.3780000000000006,-1.00000000000000024E-003,-9999.0,279.90999999999991
2013-02-04,06:30,35.270,254.09166666666670,78.561333333333337,-9.7500000000000000,-9999.0,0.28766666666666663,-3.2653333333333325,3.33333333333332943E-004,-9999.0,279.90999999999991
2013-02-04,07:00,35.291,253.80199999999996,78.301000000000002,-9.8168421052631576,-9999.0,0.36799999999999999,-3.2519999999999993,0.18400000000000002,-9999.0,279.90999999999991
2013-02-04,07:30,35.312,253.63133333333337,78.056666666666644,-9.5193333333333303,-9999.0,3.0240000000000000,8.2383333333333333,11.963666666666667,-9999.0,279.90999999999991
2013-02-04,08:00,35.333,253.90799999999996,77.653666666666638,-9.9600000000000009,-9999.0,14.294333333333334,86.160333333333327,93.539999999999978,-9999.0,279.90999999999991
2013-02-04,08:30,35.354,254.13300000000007,77.404666666666643,-9999.0,-9999.0,26.204999999999995,172.74733333333333,228.83566666666667,-9999.0,279.90999999999991
2013-02-04,09:00,35.374,254.64600000000004,77.675666666666686,-9.2235294117647033,-9999.0,39.158333333333339,251.30666666666670,364.74766666666659,-9999.0,279.90999999999991
2013-02-04,09:30,35.395,255.43233333333333,78.276333333333326,-9.2037499999999994,-9999.0,50.931333333333328,308.08866666666665,487.14499999999992,-9999.0,279.90999999999991
2013-02-04,10:00,35.416,256.26500000000004,78.780666666666647,-8.4536666666666669,-9999.0,63.377666666666670,371.90866666666676,608.45066666666651,-9999.0,279.90999999999991
2013-02-04,10:30,35.437,257.05433333333332,78.617666666666636,-8.2123333333333317,-9999.0,72.397333333333350,424.84733333333332,707.73699999999985,-9999.0,279.90999999999991
2013-02-04,11:00,35.458,257.92933333333337,74.814000000000007,-8.3816666666666695,-9999.0,73.651333333333326,425.71233333333322,729.18833333333339,-9999.0,279.90999999999991
2013-02-04,11:30,35.479,258.26600000000002,65.561666666666667,-8.4032000000000018,-9999.0,73.648333333333326,416.87599999999998,718.84266666666667,-9999.0,279.90999999999991
2013-02-04,12:00,35.499,258.79900000000004,61.134666666666661,-7.8689999999999998,-9999.0,87.701666666666654,529.48600000000010,893.63099999999997,-9999.0,279.90999999999991
2013-02-04,12:30,35.520,259.34733333333338,57.447666666666649,-7.6699999999999982,-9999.0,91.578333333333319,529.12933333333331,930.94100000000026,-9999.0,279.90999999999991
2013-02-04,13:00,35.541,259.48400000000004,55.725666666666662,-7.1326666666666672,-9999.0,88.093666666666692,477.06166666666672,885.73800000000017,-9999.0,279.90999999999991
2013-02-04,13:30,35.562,260.06433333333331,55.136666666666663,-8.9813333333333301,-9999.0,85.288333333333355,468.93533333333323,873.02633333333313,-9999.0,279.90999999999991
2013-02-04,14:00,35.583,260.28766666666672,50.849333333333334,-8.0673333333333339,-9999.0,76.548333333333332,432.34266666666667,800.26633333333314,-9999.0,279.90999999999991
2013-02-04,14:30,35.604,260.68266666666676,48.884666666666668,-9.4152173913043455,-9999.0,62.054333333333354,370.46166666666653,684.07466666666664,-9999.0,279.90999999999991
2013-02-04,15:00,35.624,260.65800000000007,47.645000000000003,-9.1507142857142867,-9999.0,45.773333333333326,270.41633333333340,503.22999999999979,-9999.0,279.90999999999991
2013-02-04,15:30,35.645,260.66033333333337,46.515333333333338,-9.1126666666666658,-9999.0,45.354000000000006,261.28633333333335,471.85133333333329,-9999.0,279.90999999999991
2013-02-04,16:00,35.666,260.57766666666674,47.298666666666662,-9.6192857142857129,-9999.0,28.670999999999999,158.05866666666665,288.47533333333337,-9999.0,279.90999999999991
2013-02-04,16:30,35.687,260.32133333333337,47.188999999999993,-9999.0,-9999.0,15.837666666666667,78.626333333333321,144.17233333333334,-9999.0,279.90999999999991
2013-02-04,17:00,35.708,260.11400000000009,48.133666666666663,-9999.0,-9999.0,7.5209999999999990,31.971000000000000,60.597999999999999,-9999.0,279.90999999999991
2013-02-04,17:30,35.729,259.63966666666670,49.713666666666661,-9999.0,-9999.0,0.90500000000000003,-1.4606666666666668,6.0260000000000007,-9999.0,279.90999999999991
2013-02-04,18:00,35.749,258.97600000000006,56.018666666666654,-9999.0,-9999.0,7.66666666666666469E-002,-3.9793333333333338,7.69999999999999574E-002,-9999.0,279.90999999999991
2013-02-04,18:30,35.770,258.55166666666668,56.596000000000004,-9999.0,-9999.0,0.17499999999999996,-3.7313333333333336,7.66666666666666712E-003,-9999.0,279.90999999999991
2013-02-04,19:00,35.791,258.32233333333335,55.458666666666673,-9999.0,-9999.0,0.18533333333333335,-3.4710000000000005,4.00000000000000095E-003,-9999.0,279.90999999999991
2013-02-04,19:30,35.812,257.95966666666669,55.261666666666663,-9999.0,-9999.0,0.10299999999999999,-3.3370000000000002,2.66666666666666658E-003,-9999.0,279.90999999999991
2013-02-04,20:00,35.833,257.74066666666670,55.576333333333338,-9999.0,-9999.0,7.53333333333333216E-002,-3.2293333333333325,8.33333333333333322E-003,-9999.0,279.90999999999991
2013-02-04,20:30,35.854,257.71400000000006,54.824333333333335,-9999.0,-9999.0,8.83333333333333470E-002,-3.0706666666666673,9.33333333333333411E-003,-9999.0,279.90999999999991
2013-02-04,21:00,35.874,257.50033333333334,55.352333333333334,-9999.0,-9999.0,3.13333333333333242E-002,-3.0309999999999997,3.33333333333333355E-003,-9999.0,279.90999999999991
2013-02-04,21:30,35.895,257.30033333333341,55.944333333333340,-9999.0,-9999.0,-2.33333333333333344E-002,-2.7560000000000002,9.66666666666666369E-003,-9999.0,279.90999999999991
2013-02-04,22:00,35.916,257.28600000000000,55.400999999999996,-9.9499999999999993,-9999.0,-0.23100000000000001,-1.8060000000000003,4.66666666666666705E-003,-9999.0,279.90999999999991
2013-02-04,22:30,35.937,257.32566666666668,53.896666666666668,-9999.0,-9999.0,-0.10566666666666664,-2.2046666666666668,3.33333333333333311E-003,-9999.0,279.90999999999991
2013-02-04,23:00,35.958,257.68100000000004,54.497000000000000,-9.3981818181818166,-9999.0,-0.21333333333333332,-1.0473333333333334,2.66666666666666658E-003,-9999.0,279.90999999999991
2013-02-04,23:30,35.979,257.44300000000004,57.464333333333329,-9.3913043478260878,-9999.0,-0.26200000000000001,-2.0020000000000002,6.66666666666666623E-003,-9999.0,279.90999999999991
2013-02-05,00:00,36.000,257.35500000000008,58.908000000000001,-6.7776666666666676,-3.2053846153846148,-0.42000000000000004,-0.27366666666666667,3.00000000000000006E-003,-9999.0,279.90999999999991
